Temperature
15 15 15 15 15 15 15 15 15 15 15 15 14 14 14 14 14 14 14 14 14 14 14 13 14 14 14 14 14 14 14 14 14 14 14 14 14 15 15 14 15 15 15
15 15 15 15 15 15 15 14 14 14 14 14 14 14 14 14 14 14 14 14 14 13 13 13 13 13 13 13 14 14 14 14 14 14 14 14 14 14 14 14 14 14 14
14 15 15 14 14 14 14 14 14 14 14 14 14 14 14 14 14 14 14 14 14 13 13 13 13 13 13 13 13 13 13 13 14 14 14 14 14 14 14 14 14 14 14
14 14 14 14 14 14 14 14 14 14 14 14 14 14 14 13 13 13 13 13 13 13 13 13 13 13 13 13 13 13 13 13 13 13 13 13 13 14 14 14 13 13 13
14 14 14 14 14 14 14 14 14 14 14 13 13 13 13 13 13 13 13 13 13 13 13 13 13 13 13 13 12 12 12 13 13 13 13 13 13 13 13 13 13 13 13
14 14 14 14 14 14 14 14 13 13 13 13 13 13 13 13 13 13 13 13 13 13 13 13 13 13 13 13 12 12 12 12 12 13 13 13 13 13 13 13 13 13 13
14 14 14 13 13 13 13 13 13 13 13 13 13 13 13 13 13 13 12 12 12 12 12 12 12 12 12 12 12 12 12 12 12 12 12 12 12 12 12 12 12 12 12
14 13 13 13 13 13 13 13 13 13 13 13 13 13 12 12 12 12 12 12 12 12 12 12 12 12 12 12 12 12 12 12 12 12 12 12 12 12 12 12 12 12 12
13 13 13 13 13 13 13 13 13 13 12 12 12 12 12 12 12 12 12 12 12 12 12 12 12 12 12 12 12 12 12 12 12 12 12 12 12 12 12 12 12 12 12
13 13 13 12 12 12 12 12 12 12 12 12 12 12 12 11 11 11 11 11 11 11 11 11 11 11 11 11 11 11 11 12 11 11 12 12 12 12 11 11 11 11 11
13 12 12 12 12 12 12 12 12 12 12 12 11 11 11 11 11 11 11 11 11 11 11 11 11 11 11 11 11 11 11 11 11 11 11 11 11 11 11 11 11 11 11
12 12 12 12 12 12 12 12 12 11 11 11 11 11 11 11 11 11 10 10 10 10 10 10 11 11 11 11 11 11 11 11 11 11 11 11 11 11 11 11 11 11 11
12 12 12 12 12 12 12 11 11 11 11 11 11 11 11 10 10 10 10 10 10 10 10 10 10 10 10 10 10 10 10 10 11 11 11 11 11 11 11 11 11 11 11
12 12 12 12 11 11 11 11 11 11 11 10 10 10 10 10 10 10 10 10 9 9 9 10 10 10 10 9 10 10 10 10 10 10 11 11 11 11 11 11 11 11 11
12 12 11 11 11 11 11 11 11 10 10 10 10 10 10 10 10 10 10 9 9 9 9 9 9 9 9 9 9 9 10 10 10 10 10 10 10 10 10 11 11 11 11
12 11 11 11 11 11 11 11 10 10 10 10 10 10 10 10 10 10 9 9 9 9 9 9 9 9 9 9 9 9 9 9 9 10 10 10 10 10 10 10 10 10 10
11 11 11 11 11 10 10 10 10 10 10 10 10 9 9 9 9 9 9 9 9 9 9 9 9 9 9 9 9 9 9 9 9 9 9 9 10 10 10 10 10 10 10
11 11 11 11 10 10 10 10 10 9 9 9 9 9 9 9 9 9 9 9 9 9 9 8 9 9 9 9 9 9 9 9 9 9 9 9 9 10 10 10 10 10 10
11 11 11 10 10 10 10 9 9 9 9 9 9 9 9 9 9 9 9 9 9 9 8 8 8 8 8 8 8 9 9 9 9 9 9 9 9 9 9 9 10 10 10
11 10 10 10 10 10 9 9 9 9 9 9 8 8 8 8 8 8 8 8 8 8 8 8 8 8 8 8 8 8 9 9 9 9 9 9 9 9 9 9 9 10 9
10 10 10 10 9 9 9 9 9 9 8 8 8 8 8 8 8 8 8 8 8 8 8 8 8 8 8 8 8 8 8 8 8 8 9 9 9 9 9 9 9 9 9
10 9 9 9 9 9 9 8 8 8 8 8 8 8 8 8 8 8 8 8 8 8 8 8 8 8 8 8 8 8 8 8 8 8 8 8 8 9 9 9 9 9 9
9 9 9 9 8 8 8 8 8 8 8 8 7 7 8 8 8 8 8 8 8 7 7 7 7 8 8 8 7 7 8 7 8 8 8 8 8 8 8 8 8 8 9
9 9 8 8 8 8 8 8 8 7 7 7 7 7 7 7 7 7 7 7 7 7 7 7 7 7 7 7 7 7 7 7 7 8 8 8 8 8 8 8 8 8 8
9 8 8 8 8 8 8 7 7 7 7 7 7 7 7 7 7 7 7 7 7 7 7 7 7 7 7 7 7 7 7 7 7 7 7 7 7 8 8 8 8 8 8
8 8 8 8 8 7 7 7 7 7 7 7 7 7 7 7 7 7 7 7 7 7 7 7 7 7 7 7 7 7 7 7 7 7 7 7 7 7 7 7 7 7 7
Wind_Speed
4 5 5 7 7 8 6 6 6 6 6 7 7 7 6 7 7 8 8 9 9 9 9 9 10 10 10 10 11 10 10 10 10 10 10 9 9 8 7 7 7 6 5
5 4 4 5 6 6 6 6 5 5 4 5 6 6 6 6 7 8 8 10 11 10 9 9 9 9 10 10 10 10 10 9 9 9 9 8 8 8 7 7 6 6 6
6 5 4 4 5 6 6 6 6 5 5 5 5 5 5 6 7 7 8 9 9 11 11 10 10 10 9 9 9 9 9 9 9 8 8 8 7 7 7 7 6 7 7
6 5 4 4 5 6 5 4 4 4 5 4 4 4 4 5 6 7 8 9 9 9 10 11 11 10 10 9 8 8 8 9 8 8 8 8 7 7 7 7 6 6 6
6 6 4 4 5 5 4 4 4 3 3 4 3 3 4 4 4 5 6 8 8 9 9 10 10 10 10 9 9 8 8 8 8 7 7 7 6 6 7 6 6 6 6
6 6 5 5 5 4 4 4 3 4 3 2 3 4 3 3 4 4 4 6 7 8 8 8 9 8 9 9 9 9 8 8 8 7 6 6 6 5 6 6 7 6 6
5 5 4 4 4 4 3 3 3 4 4 3 3 3 4 4 4 4 4 4 5 6 7 7 7 7 7 9 9 9 9 9 9 8 7 5 5 5 5 5 6 6 5
5 4 4 3 3 3 4 4 3 2 2 3 2 2 3 4 4 4 4 4 4 4 5 6 6 6 7 7 7 9 9 9 9 8 7 7 6 5 4 5 5 6 5
4 4 3 3 3 2 2 2 2 3 1 2 2 2 2 1 3 3 3 4 4 3 3 4 5 6 6 6 6 8 9 9 10 9 8 7 6 6 5 5 5 5 5
3 3 3 3 2 2 1 1 2 1 2 1 1 2 1 2 0 2 3 3 3 3 3 3 4 5 5 6 6 7 8 8 9 9 9 8 7 6 5 5 4 5 4
3 2 2 2 2 1 1 1 1 2 1 1 1 0 1 2 1 1 2 3 3 3 2 2 3 4 5 5 5 6 7 8 8 9 9 7 7 6 5 5 4 3 3
2 3 2 2 1 1 0 0 1 1 1 1 1 1 1 0 1 1 1 2 3 3 3 2 2 3 4 4 5 6 6 7 7 8 8 7 7 6 6 5 4 3 3
1 2 2 1 1 1 1 1 1 1 1 1 1 0 0 0 1 1 1 1 2 2 3 2 2 3 4 4 4 6 6 6 7 8 7 7 7 6 6 5 4 3 2
2 1 1 1 1 1 1 1 1 0 1 0 0 0 0 1 1 1 2 1 1 2 2 3 2 2 3 4 4 5 5 6 6 7 7 7 7 6 5 5 4 3 3
0 0 0 0 1 1 1 1 1 0 0 0 1 0 0 1 1 1 1 2 2 0 2 2 2 2 3 3 4 4 4 5 6 6 7 7 6 6 5 5 4 3 3
0 1 0 0 1 1 1 1 1 0 1 0 0 0 1 1 1 1 1 1 2 2 2 2 2 2 2 2 4 4 4 5 6 6 6 6 6 5 5 4 4 3 3
1 1 0 0 0 1 1 1 1 1 0 1 1 1 2 1 1 1 0 0 1 2 2 2 1 2 1 2 3 4 4 4 4 6 6 6 6 5 5 4 4 3 2
0 1 1 0 0 0 0 0 1 1 0 1 2 1 2 1 1 1 0 1 1 2 2 2 2 1 1 2 2 2 3 3 3 5 6 6 6 5 5 4 3 3 2
1 1 1 1 0 0 1 1 1 1 0 1 1 1 2 1 1 2 1 1 1 1 1 1 2 1 1 2 2 2 2 2 3 4 5 5 5 5 4 3 3 3 2
1 1 0 0 0 0 0 0 0 1 1 1 1 1 1 1 2 2 1 1 1 0 0 0 1 1 1 2 1 1 2 2 2 3 4 4 4 5 4 3 3 2 2
1 1 1 1 1 1 0 0 1 1 1 1 2 2 2 2 3 2 2 1 0 1 0 0 1 1 1 1 1 1 2 3 2 1 2 3 3 3 3 4 4 2 2
2 2 2 2 2 2 3 3 1 1 1 1 2 3 3 3 4 4 4 2 1 1 1 1 2 2 3 2 1 1 1 1 2 1 1 3 1 2 3 3 3 2 2
2 2 1 1 1 2 3 3 3 2 1 0 1 2 3 3 4 2 3 3 2 2 2 2 2 3 3 3 2 2 2 2 3 2 1 2 1 2 3 4 4 3 2
2 1 1 0 1 2 3 3 3 2 1 1 1 1 2 3 3 3 2 2 2 3 3 2 3 4 3 3 3 3 3 2 2 1 1 1 1 2 3 4 4 3 3
2 1 1 1 0 2 3 2 3 1 1 1 2 2 2 2 5 4 1 2 3 4 4 4 4 4 4 3 1 0 1 1 2 2 1 1 1 1 2 2 3 4 3
2 1 1 0 0 1 2 2 2 1 0 1 2 3 4 4 5 4 1 1 2 4 4 3 3 4 3 3 2 1 2 2 1 2 1 1 1 1 2 2 2 3 3
Wind_Direction
50 47 46 45 44 44 45 44 49 47 43 45 51 55 47 41 37 33 26 35 41 46 46 49 53 56 59 58 55 52 49 47 44 43 41 40 42 48 52 61 61 57 56
58 57 50 46 40 40 45 50 52 51 44 46 45 47 43 37 34 35 33 33 38 41 46 49 51 55 57 55 54 49 44 42 42 42 39 38 40 46 51 57 59 56 58
61 63 55 44 35 40 50 57 52 53 46 44 38 35 44 40 38 37 39 38 36 38 44 47 49 51 51 51 48 46 42 38 39 39 38 37 41 47 54 55 56 57 60
62 65 57 44 36 47 53 57 50 49 41 36 31 24 34 37 35 37 41 40 37 34 36 41 45 47 45 44 42 40 39 36 33 33 32 31 39 46 50 53 51 54 57
64 70 64 49 46 52 47 54 53 56 51 35 36 31 26 29 29 40 39 38 37 36 33 34 37 36 37 36 34 33 34 31 25 21 25 28 36 43 45 47 46 53 57
62 69 68 54 54 57 46 46 58 46 48 33 46 37 21 19 30 36 34 36 34 33 31 30 28 24 27 26 26 26 26 22 18 19 24 27 34 41 42 43 43 52 57
61 68 68 60 57 59 57 53 61 55 35 25 46 25 13 22 33 31 32 33 30 25 30 29 25 20 15 14 16 18 19 19 20 22 22 24 28 31 39 39 45 47 51
61 69 71 69 64 66 57 55 63 67 40 32 53 55 10 358 11 22 24 34 25 25 28 22 18 16 15 12 6 15 18 21 19 18 21 24 25 24 37 47 47 42 44
57 61 69 74 72 80 75 57 74 86 68 14 43 87 95 286 323 346 12 24 18 21 10 11 12 9 9 10 8 16 19 21 19 19 19 23 29 34 40 44 40 37 41
39 52 66 74 80 79 82 67 77 66 100 46 7 31 110 157 133 328 339 3 8 10 357 360 0 359 0 5 5 9 12 15 14 14 16 21 28 31 35 35 32 35 41
21 32 58 75 74 79 90 78 79 74 88 99 71 13 41 40 70 168 302 327 345 344 341 340 351 354 353 1 359 5 8 10 12 13 12 17 23 25 30 27 18 25 40
0 18 43 61 54 51 38 118 125 113 99 93 86 95 117 137 238 175 229 299 312 315 330 339 351 346 349 352 353 360 3 6 8 10 8 14 18 18 16 20 13 24 50
326 325 12 34 29 349 356 82 113 124 122 120 131 183 144 198 199 177 170 255 297 308 328 340 323 328 345 349 348 355 358 2 2 2 5 13 16 15 15 17 15 28 59
252 299 356 12 17 3 15 68 94 154 108 142 317 200 187 266 215 187 189 180 335 330 331 305 321 308 332 334 333 347 352 352 356 355 3 9 11 10 12 16 14 29 55
256 49 85 35 5 15 42 80 77 288 140 206 235 205 298 279 268 246 201 191 168 247 289 284 297 309 314 315 331 345 341 341 349 357 6 8 6 5 5 11 11 22 50
98 81 25 300 334 7 36 83 64 356 85 303 222 337 309 303 311 300 230 213 175 179 232 266 258 289 305 327 334 339 334 338 341 352 360 359 356 358 2 3 3 13 43
162 156 164 132 338 13 19 61 9 9 27 322 337 331 307 311 314 319 321 186 184 167 212 279 280 301 302 320 334 335 331 330 333 341 344 346 347 351 356 358 355 8 38
147 167 163 138 210 209 260 165 274 323 272 292 304 309 300 325 317 308 272 245 238 205 191 252 284 309 306 314 315 313 324 329 324 328 331 333 337 339 341 343 350 1 358
87 74 102 139 199 244 229 230 223 271 277 300 298 295 300 333 310 301 286 267 254 252 208 212 275 304 321 330 331 318 328 329 322 324 327 325 331 334 327 335 341 345 334
127 108 90 149 202 264 247 234 107 69 27 355 327 312 310 286 279 283 288 267 245 213 174 227 297 305 299 309 332 323 330 324 317 330 328 328 331 329 332 338 334 323 309
88 81 67 40 25 23 345 134 145 101 67 5 346 327 312 308 308 310 312 282 216 163 159 283 286 296 293 318 301 285 307 317 311 323 336 334 333 335 328 322 320 307 285
82 76 71 61 36 7 6 26 72 110 87 15 329 320 312 319 326 331 322 316 292 188 214 229 253 266 272 263 253 270 279 328 310 325 341 313 346 313 309 310 303 289 272
105 86 66 65 35 346 9 28 40 90 84 352 303 315 326 332 337 336 341 346 320 299 268 237 249 257 251 247 230 244 238 245 259 288 330 297 328 298 300 300 292 283 270
129 125 112 81 30 351 11 29 44 53 46 342 307 302 306 319 327 343 0 357 334 313 289 271 247 251 255 242 226 226 224 244 280 284 199 270 305 284 306 305 296 288 277
144 146 156 136 69 340 359 23 46 77 41 328 315 330 325 309 321 343 11 342 332 325 329 319 309 301 297 295 276 107 161 186 278 281 220 226 276 295 307 309 311 308 291
154 142 104 118 193 296 334 4 35 91 21 318 324 324 331 333 337 348 357 324 313 311 329 343 350 347 347 337 322 265 206 211 237 266 236 205 247 305 314 304 322 324 310
Height
1531 1530 1530 1529 1528 1528 1527 1527 1527 1526 1526 1526 1525 1525 1525 1524 1524 1524 1523 1522 1522 1521 1521 1521 1520 1519 1519 1519 1519 1519 1519 1518 1518 1517 1517 1517 1517 1516 1516 1516 1516 1516 1517
1532 1532 1531 1530 1530 1529 1529 1528 1528 1527 1527 1526 1526 1526 1525 1525 1524 1524 1524 1523 1522 1522 1522 1521 1521 1521 1520 1520 1519 1519 1519 1519 1518 1517 1517 1517 1516 1516 1516 1516 1516 1516 1516
1533 1533 1532 1531 1531 1530 1530 1529 1529 1528 1528 1527 1527 1526 1526 1525 1525 1524 1524 1523 1523 1522 1522 1522 1521 1521 1521 1520 1520 1520 1519 1519 1518 1517 1517 1516 1516 1516 1515 1515 1516 1516 1516
1534 1533 1533 1532 1532 1531 1530 1529 1529 1529 1528 1528 1527 1526 1526 1526 1525 1525 1524 1523 1523 1523 1522 1522 1521 1521 1521 1520 1520 1520 1519 1518 1518 1517 1516 1516 1515 1515 1515 1515 1515 1515 1515
1534 1534 1533 1533 1532 1531 1530 1530 1529 1529 1528 1528 1527 1527 1526 1526 1525 1525 1524 1524 1523 1523 1522 1522 1521 1521 1521 1520 1520 1520 1519 1518 1517 1517 1516 1515 1515 1514 1514 1514 1514 1514 1515
1535 1534 1533 1533 1532 1532 1531 1530 1529 1529 1529 1528 1527 1527 1527 1526 1526 1525 1524 1524 1523 1523 1522 1522 1521 1521 1520 1520 1520 1519 1519 1518 1517 1516 1515 1515 1514 1514 1514 1513 1513 1513 1513
1535 1534 1534 1533 1533 1532 1531 1530 1530 1529 1528 1528 1527 1527 1527 1526 1526 1525 1524 1524 1523 1523 1522 1521 1521 1520 1520 1520 1519 1519 1518 1517 1516 1515 1514 1514 1513 1513 1513 1513 1513 1512 1512
1535 1535 1534 1533 1533 1532 1531 1531 1530 1529 1528 1528 1527 1526 1526 1527 1526 1525 1524 1524 1523 1522 1522 1521 1521 1520 1520 1519 1518 1518 1517 1516 1515 1514 1513 1513 1512 1512 1512 1512 1511 1511 1511
1535 1534 1534 1533 1533 1532 1531 1530 1530 1529 1529 1528 1528 1528 1527 1526 1525 1525 1524 1524 1523 1522 1522 1521 1520 1519 1519 1518 1517 1517 1516 1515 1514 1513 1512 1512 1511 1511 1510 1510 1510 1510 1510
1535 1534 1533 1533 1532 1532 1531 1530 1530 1529 1529 1528 1528 1527 1528 1527 1526 1525 1524 1523 1522 1521 1521 1520 1519 1519 1518 1517 1516 1516 1515 1514 1513 1512 1511 1511 1510 1509 1509 1509 1509 1509 1509
1534 1533 1533 1532 1532 1531 1530 1530 1529 1529 1529 1528 1528 1527 1527 1526 1525 1524 1522 1522 1521 1521 1520 1519 1518 1518 1517 1516 1515 1515 1514 1513 1512 1512 1511 1510 1509 1508 1508 1507 1507 1507 1508
1534 1533 1532 1532 1531 1530 1530 1529 1529 1528 1528 1528 1527 1527 1526 1525 1524 1523 1522 1520 1519 1519 1519 1518 1517 1516 1515 1515 1514 1513 1513 1513 1512 1511 1510 1509 1508 1507 1506 1506 1505 1506 1506
1532 1532 1531 1531 1530 1530 1529 1528 1528 1527 1527 1527 1526 1526 1525 1525 1524 1523 1521 1519 1518 1517 1517 1517 1516 1515 1515 1514 1513 1513 1512 1511 1511 1510 1509 1508 1506 1506 1505 1504 1503 1504 1505
1531 1531 1530 1529 1529 1528 1528 1527 1527 1526 1526 1526 1525 1525 1524 1524 1523 1522 1521 1519 1517 1516 1515 1515 1515 1514 1514 1513 1512 1512 1511 1510 1509 1509 1508 1507 1506 1505 1504 1504 1503 1504 1505
1530 1530 1529 1528 1528 1527 1527 1526 1525 1525 1524 1524 1524 1523 1523 1522 1521 1521 1520 1518 1518 1515 1514 1514 1514 1513 1513 1512 1511 1510 1510 1509 1508 1507 1507 1506 1505 1505 1504 1504 1503 1504 1504
1529 1528 1527 1527 1526 1525 1525 1525 1524 1524 1523 1522 1522 1521 1521 1520 1520 1519 1518 1517 1516 1515 1514 1513 1513 1512 1511 1511 1510 1509 1509 1508 1507 1506 1506 1505 1505 1504 1504 1503 1503 1504 1504
1527 1527 1526 1525 1524 1524 1523 1523 1522 1522 1521 1521 1520 1519 1519 1518 1518 1517 1516 1516 1515 1514 1512 1512 1512 1511 1510 1509 1508 1508 1507 1507 1506 1505 1504 1504 1503 1503 1503 1503 1503 1503 1504
1525 1525 1524 1524 1523 1522 1522 1521 1521 1520 1520 1519 1518 1518 1517 1517 1516 1515 1515 1514 1513 1513 1512 1510 1510 1509 1508 1508 1507 1507 1506 1505 1504 1504 1503 1503 1502 1502 1501 1502 1502 1502 1503
1523 1523 1522 1522 1521 1520 1520 1519 1519 1518 1518 1517 1516 1516 1515 1515 1514 1513 1513 1512 1512 1511 1510 1509 1508 1508 1507 1507 1506 1505 1505 1504 1503 1503 1502 1501 1501 1501 1500 1500 1500 1501 1501
1521 1521 1520 1520 1519 1519 1518 1517 1517 1516 1516 1515 1515 1514 1514 1513 1512 1511 1511 1510 1509 1509 1508 1507 1506 1506 1506 1505 1504 1503 1502 1502 1502 1502 1501 1500 1500 1499 1499 1499 1499 1499 1500
1519 1519 1518 1518 1517 1517 1516 1515 1515 1514 1514 1513 1513 1512 1512 1511 1510 1510 1509 1508 1507 1507 1506 1506 1505 1504 1504 1503 1503 1502 1501 1501 1500 1500 1499 1499 1498 1498 1498 1498 1498 1498 1498
1517 1517 1516 1516 1515 1515 1514 1514 1513 1512 1512 1511 1511 1510 1510 1509 1508 1508 1507 1507 1506 1506 1505 1504 1503 1502 1502 1502 1501 1501 1500 1499 1498 1499 1498 1497 1497 1496 1496 1496 1496 1496 1496
1515 1515 1514 1514 1514 1513 1513 1512 1511 1511 1510 1509 1509 1508 1508 1507 1506 1506 1505 1504 1504 1504 1504 1503 1501 1501 1500 1500 1500 1499 1498 1498 1497 1497 1496 1495 1495 1494 1494 1494 1494 1493 1493
1513 1513 1513 1512 1512 1511 1511 1510 1510 1509 1508 1508 1507 1507 1506 1505 1505 1504 1503 1503 1502 1501 1501 1500 1500 1499 1499 1498 1498 1497 1497 1496 1495 1495 1494 1493 1492 1492 1492 1492 1491 1491 1491
1510 1510 1510 1510 1509 1509 1509 1508 1508 1507 1506 1506 1505 1505 1504 1504 1503 1503 1502 1500 1500 1499 1499 1498 1498 1497 1497 1496 1496 1495 1494 1493 1492 1492 1492 1491 1490 1490 1489 1489 1489 1489 1489
1508 1508 1508 1508 1507 1507 1507 1506 1506 1505 1504 1503 1503 1502 1502 1501 1501 1500 1499 1498 1497 1496 1496 1496 1495 1495 1495 1494 1494 1493 1492 1491 1490 1489 1489 1489 1488 1487 1487 1487 1487 1486 1486